Back to catalog

FENGYUN 1C DEB

AlivePO
NORAD 30452·DEBRIS·🇨🇳 China

Launched May 10, 1999 from Taiyuan Satellite Launch Center

Loading…

Next Passes (next 24 hours)

TLE

FreshSource: Space-Track

Epoch: Sep 14, 2026, 11:19 UTC

1 30452U 99025AFP 26257.47182551  .00012160  00000-0  18010-2 0  9996
2 30452  99.3366  80.5856 0040549 125.1901 265.1678 14.74753857 21442

Track FENGYUN 1C DEB in real time with AllMySat

Download on the App Store